This is the latest recevied weather packets stored in our database for station/object KJ6LNH-1. If no packets are shown the sender has not sent any weather packets the latest 10 day(s).
| Time | Temp. | Humidity | Pressure | Rain* | Wind** | Luminosity | Snow |
|---|---|---|---|---|---|---|---|
| 1787936106 | 22.22° C | 43% | 1013.5 hPa | 0 mm | - | - | - |
| 1787935505 | 21.67° C | 43% | 1013.4 hPa | 0 mm | - | - | - |
| 1787935209 | 21.67° C | 42% | 1013.3 hPa | 0 mm | - | - | - |
| 1787934909 | 21.67° C | 41% | 1013.3 hPa | 0 mm | - | - | - |
| 1787934607 | 22.22° C | 40% | 1013.3 hPa | 0 mm | - | - | - |
| 1787934306 | 22.22° C | 40% | 1013.3 hPa | 0 mm | - | - | - |
| 1787934005 | 22.22° C | 40% | 1013.3 hPa | 0 mm | - | - | - |
| 1787933709 | 21.67° C | 40% | 1013.2 hPa | 0 mm | - | - | - |
| 1787933405 | 21.67° C | 40% | 1013.1 hPa | 0 mm | - | - | - |
| 1787933107 | 21.67° C | 40% | 1013.1 hPa | 0 mm | - | - | - |
| 1787932806 | 21.67° C | 41% | 1013.2 hPa | 0 mm | - | - | - |
| 1787932206 | 21.11° C | 43% | 1013.3 hPa | 0 mm | - | - | - |
| 1787931905 | 20.56° C | 44% | 1013.3 hPa | 0 mm | - | - | - |
| 1787931605 | 20.56° C | 48% | 1013.3 hPa | 0 mm | - | - | - |
| 1787931308 | 20° C | - | - | 0 mm | - | - | - |
| 1787931305 | 20° C | 50% | 1013.2 hPa | 0 mm | - | - | - |
| 1787930407 | 20° C | 51% | 1012.8 hPa | 0 mm | - | - | - |
| 1787930105 | 20° C | 50% | 1012.6 hPa | 0 mm | - | - | - |
| 1787929508 | 20° C | 50% | 1312.3 hPa | 0 mm | - | - | - |
| 1787929507 | 20° C | 50% | 1012.3 hPa | 0 mm | - | - | - |
| 1787929206 | 20° C | 50% | 1012.1 hPa | 0 mm | - | - | - |
| 1787928907 | 20° C | 50% | 1012 hPa | 0 mm | - | - | - |
| 1787928605 | 20° C | 50% | 1011.9 hPa | 0 mm | - | - | - |
| 1787928306 | 20° C | 50% | 1011.9 hPa | 0 mm | - | - | - |
| 1787928005 | 19.44° C | 50% | 1011.8 hPa | 0 mm | - | - | - |
* Rain latest hour (hover to see other rain measurements)
** Current wind speed in m/s (hover to see current wind gust speed)